Orbital Elements at Epoch 2459000.5 (2020-May-31.0) TDB
Reference: JPL 35 (heliocentric ecliptic J2000)
Element | Value | Uncertainty (1-sigma) | Units |
e | .1536280575285813 | 2.4929e-08 | |
a | 2.204018650862031 | 5.7051e-09 | au |
q | 1.865419546773333 | 5.3667e-08 | au |
i | 3.651179848549437 | 3.2665e-06 | deg |
node | 78.60842390088446 | 5.1604e-05 | deg |
peri | 233.2028077718088 | 5.3298e-05 | deg |
M | 18.55776645026341 | 1.3567e-05 | deg |
tp | 2458938.890947624679 (2020-Mar-30.39094762) | 4.5027e-05 | TDB |
period | 1195.14699759576 3.27 | 4.6405e-06 1.27e-08 | d yr |
n | .3012181771147825 | 1.1696e-09 | deg/d |
Q | 2.54261775495073 | 6.5816e-09 | au |
|
| | Orbit Determination Parameters
Additional Information
|